Regional Weather Roundup
Issued by NWS Pendleton, OR

Home | Current Version | Previous Version | Text Only | Print | Product List | Glossary On
Versions: 1 2 3 4 5 6 7 8 9 10 11 12 13 14 15 16 17 18 19 20 21 22 23 24 25 26 27 28 29 30 31 32 33 34 35 36 37 38 39 40 41 42 43 44 45 46 47 48 49 50
000
ASUS46 KPDT 212025
RWRPDT
PENDLETON REGIONAL WEATHER ROUNDUP
NATIONAL WEATHER SERVICE PENDLETON OREGON
1200 PM PST SUN DEC 21 2014

NOTE: FAIR INDICATES FEW OR NO CLOUDS BELOW 12,000 FEET WITH NO
SIGNIFICANT WEATHER AND/OR OBSTRUCTIONS TO VISIBILITY.

# INDICATES UNOFFICIAL STATION AND DATA

WAZ520-212110-
EAST SLOPES OF WASHINGTON CASCADES

CITY            SKY/WX      TMP DP  RH  WIND    PRES   REMARKS
#BULLFROG 2SW   N/A         46  39  76  S1      27.49R
#BUMPING DAM    N/A         36  N/A N/A W12     N/A    WCI 28
#CLE ELUM HS    N/A         44  39  82  W2      29.86R
#CLE ELUM 2NW   N/A         42  39  89  W1      N/A
#CLIFFDEL 2NW   N/A         40  39  96  NW3     N/A
#GLENWOOD       N/A         47  42  83  SW3     29.98R
#MANASTASH CYN  N/A         40  37  89  CALM    29.86S
#NILE           N/A         41  41  100 CALM    29.19S
#TEANAWAY 4NE   N/A         46  41  83  S1      N/A
#TROUT LAKE HS  N/A         47  44  89  W1      N/A
#TROUT LAKE 1NE N/A         47  42  83  W8      30.00S
$$

WAZ521-212110-
SIMCOE HIGHLANDS

CITY            SKY/WX      TMP DP  RH  WIND    PRES   REMARKS
#BICKLETON HS   N/A         47  27  45  W13     34.25S WCI 41
#CENTERVILLE 1SWN/A         47  41  79  W15     29.95R WCI 41
#GOLDENDALE     N/A         50  44  80  W15     N/A
#GOLDENDALE 1NE N/A         49  39  68  SW8     N/A
#GOLDENDALE 1S  N/A         48  43  83  W12G24  29.93R WCI 43
#GOLDENDALE 5WNWN/A         48  43  83  SW9     29.96R
#GOODNOE HILLS  N/A         51  42  71  W20     N/A
#LYLE 6NE       N/A         46  44  93  SW2     29.98R
$$

WAZ026-212110-
KITTITAS VALLEY

CITY            SKY/WX      TMP DP  RH  WIND    PRES   REMARKS
ELLENSBURG AP   CLOUDY      51  40  66  NW10    29.88R
#ELLENSBURG CWU N/A         51  41  68  NW3     29.85R
#ELLENSBURG 3NE N/A         48  40  74  NW9     29.88S
#ELLENSBURG     N/A         52  43  71  W2      N/A
#ELLENSBURG 1E  N/A         50  37  61  NW1     N/A
#KITTITAS 4N    N/A         48  38  68  W13     29.92S WCI 43
#KITTITAS 3S    N/A         51  40  66  W10     29.88S
#THORP 6N       N/A         43  39  86  NW15    29.92S WCI 36
$$

WAZ027-212110-
YAKIMA VALLEY

CITY            SKY/WX      TMP DP  RH  WIND    PRES   REMARKS
YAKIMA AIRPORT  MOCLDY      58  37  45  NW20G28 29.89S
YAKIMA-VAGABOND MOCLDY      53  38  57  W14     29.89S
#DONALD 2NE     N/A         56  38  51  E6      28.75F
#GRANDVIEW      N/A         57  37  47  W9      29.90F
#MABTON         N/A         58  44  60  W8      29.89S
#MOXEE 2E       N/A         36  34  92  CALM    29.97
#NACHES 2SW     N/A         49  41  74  W6      29.80S
#OUTLOOK DOT    N/A         N/A N/A N/A W17     N/A
#SELAH 8E       N/A         51  36  56  W14     N/A
#TERRACE HTS    N/A         55  41  59  NW3     29.88S
#WAPATO 4NE     N/A         56  38  51  E6      28.75F
#WEST VALLEY    N/A         55  38  53  N10     29.88S
#W YAKIMA       N/A         54  39  57  W6      29.91S
#WHITE SWAN 5E  N/A         55  40  57  W16G25  29.91S
#WILEY CITY 3W  N/A         53  31  43  NW5     29.89R
$$

WAZ028-212110-
LOWER COLUMBIA BASIN...WASHINGTON

CITY            SKY/WX      TMP DP  RH  WIND    PRES   REMARKS
PASCO           PTCLDY      58  41  53  W9      29.91R
PROSSER AWOS    N/A         59  41  51  SW20    29.91F
RICHLAND AWOS   PTCLDY      57  39  51  W24G30  29.88R
#BASIN CITY 5SW N/A         57  43  59  SW7     29.88R
#BENTON CITY    N/A         57  42  57  W15G25  29.80S
#CONNELL 5N     N/A         54  43  66  W8      29.88S
#CONNELL 5NW    N/A         54  44  69  W6      29.84F
#ELTOPIA        N/A         59  44  57  W6      29.85R
#ELTOPIA 6NW    N/A         57  42  57  W12     28.85R
#KAHLOTUS       N/A         53  45  74  W17G28  29.88S
#KENNEWICK      N/A         46  39  76  S1      27.49R
#KENNEWICK 3S   N/A         55  45  69  W6      29.89R
#PASCO-BROADMOORN/A         58  40  51  S13     29.80R
#PATERSON       N/A         55  47  74  W14     29.92R
#PROSSER        N/A         56  39  53  NW3     29.90S
#SAGEMOOR 2W    N/A         57  44  62  S12G24  29.73S
#TOUCHET 2S     N/A         56  45  66  W14     29.89S
#WEST PASCO     N/A         58  43  57  W7      29.89R
$$

WAZ029-212110-
FOOTHILLS OF THE BLUES...WASHINGTON

CITY            SKY/WX      TMP DP  RH  WIND    PRES   REMARKS
WALLA WALLA AP  CLOUDY      53  43  69  SW16    29.92S
#COLLEGE PLACE  N/A         55  41  59  CALM    29.93F
#DAYTON SCHOOL  N/A         51  41  68  S9      29.91F
#LOWDEN 2SE     N/A         56  46  69  W13     29.88S
#PLEASANT VIEW 1N/A         51  44  77  SW13    29.93S
#PRESCOTT       N/A         55  47  74  W7      29.89F
#SUDBURY        N/A         56  N/A N/A CALM    N/A
#WHITMAN COLLEGEN/A         54  44  69  SW10    29.97R
#WAITSBURG 5S   N/A         49  44  83  SW15    30.01S WCI 43
#WALLA WALLA 5E N/A         52  44  74  W20     N/A
#WALLA WALLA U  N/A         55  45  69  CALM    29.92R
#WHITMAN MISSIONN/A         55  46  72  W7      29.92F
$$

WAZ030-212110-
BLUE MOUNTAINS...WASHINGTON

CITY            SKY/WX      TMP DP  RH  WIND    PRES   REMARKS
#DIXIE 5SE      N/A         43  38  82  SW16G24 29.84F WCI 35
#SKI BLUEWOOD   N/A         36  33  89  N15G30  29.96  WCI 27
$$

ORZ009-041-WAZ024-212110-
COLUMBIA RIVER GORGE

CITY            SKY/WX      TMP DP  RH  WIND    PRES   REMARKS
HOOD RIVER AP   CLOUDY      50  48  93  W3      30.00F
THE DALLES AP   LGT RAIN    53  47  80  W6      30.00R
#ARLINGTON AIRPON/A         54  45  71  W21G28  29.99S
#ARLINGTON HS   N/A         56  44  64  N16     29.88S
#CELILO DOT     N/A         54  43  66  SW6     N/A
#LYLE           N/A         53  50  89  N8      30.02R
#MARYHILL 2W    N/A         51  49  93  SW2     N/A
#MOSIER 1S      N/A         49  45  86  W8      30.03R
#MURDOCK        N/A         54  50  86  NW7     30.02R
#RUFUS DOT      N/A         55  38  53  W28G35  N/A

$$

ORZ510-212110-
NORTH CENTRAL OREGON

CITY            SKY/WX      TMP DP  RH  WIND    PRES   REMARKS
#CHENOWITH 1W   N/A         46  45  96  W17     N/A    WCI 39
#COW CYN RST AREN/A         43  40  89  SW3     N/A
#DUFUR 9E       N/A         46  42  86  W12     30.04F WCI 40
#GRASS VALLEY   N/A         45  43  93  SW2     N/A
#GRASS VALLEY 1SN/A         45  42  89  W2      30.03S
#KENT DOT       N/A         45  34  65  W15     N/A    WCI 38
#MAUPIN SCHOOL  N/A         53  42  66  CALM    30.02F
#MORO SCHOOL    N/A         49  46  89  W9      30.00F
#SHANIKO 4NW    N/A         41  38  89  SW13    30.01S WCI 34
#TYGH VALLEY 2NEN/A         51  44  77  NE3     30.01S
#WAPANITIA AIRPON/A         49  42  77  W8      30.03S
#WASCO DOT      N/A         51  43  74  W15     N/A
#WASCO AIRPORT  N/A         49  43  80  W21     N/A    WCI 42
#WASCO 5NE      N/A         49  45  86  W9      29.96F
$$

ORZ511-212110-
CENTRAL OREGON

CITY            SKY/WX      TMP DP  RH  WIND    PRES   REMARKS
BEND AIRPORT    MOCLDY      46  45  96  CALM    30.05S
MADRAS AIRPORT  CLOUDY      46  43  89  SE5     30.06F
PRINEVILLE AP   MOCLDY      46  45  96  W5      30.06S
REDMOND AIRPORT CLOUDY      47  44  89  NW6     30.05S
#BEND 1SW       N/A         44  44  100 N1      N/A
#BEND-AWBREY    N/A         46  45  96  CALM    30.06R
#BEND-KIM LN    N/A         46  44  93  SW1     30.02R
#CROOKED RVR RANN/A         48  44  86  W41G60  30.04S WCI 38
#CULVER         N/A         47  41  79  SW2     30.01F
#LAKE BILLY CHINN/A         47  39  74  S3      30.13S
#POWELL BUTTE 3EN/A         46  44  93  W3      N/A
#POWELL BUTTE   N/A         46  43  89  N3      29.68S
#PRINEVILLE 3N  N/A         47  43  86  NW3     30.00F
#WARM SPRINGS   N/A         50  47  89  CALM    30.02F


ORZ509-212110-
EAST SLOPES OF OREGON CASCADES

CITY            SKY/WX      TMP DP  RH  WIND    PRES   REMARKS
#BLUE BOX PASS  N/A         38  -12 11  NW3     N/A
#BLACK BUTTE RNCN/A         44  43  96  CALM    30.05S
#CAMP SHERMAN   N/A         45  44  96  CALM    30.04S
#LA PINE DOT    N/A         45  41  86  W8      N/A
#LA PINE 4NW    N/A         44  41  89  NW1     30.11F
#LAVA BUTTE DOT N/A         42  40  93  SW1     N/A
#MT BACHELOR-MIDN/A         32  31  96  E24G40  N/A    WCI 19
#SISTERS AIRPOR N/A         46  46  100 N7      30.17S
#SISTERS ODOT   N/A         46  N/A N/A S6      N/A
#SISTERS 1NW    N/A         46  41  83  N8      N/A
#SISTERS 3N     N/A         44  42  93  SW3     30.07S
#SUNRIVER       N/A         44  43  96  SW3     29.94F
#TUMALO 3W      N/A         45  43  93  NW3     29.93R
#WANOGA BUTTE D N/A         36  36  100 W14     N/A    WCI 27

$$

ORZ044-212110-
LOWER COLUMBIA BASIN...OREGON

CITY            SKY/WX      TMP DP  RH  WIND    PRES   REMARKS
HERMISTON       MOCLDY      56  43  62  W16G28  29.93F
#BOARDMAN 3W    N/A         56  46  69  SW23    29.62S
#BOARDMAN 8SW   N/A         55  47  74  SW23    29.94R
#ECHO 8SW       N/A         55  43  64  W18G26  29.91R
#IONE SCHOOL    N/A         54  41  61  SW9     29.99R
#IRRIGON 4NW    N/A         55  47  74  SW15    N/A
#UMATILLA SCHOOLN/A         54  49  83  W13     29.95S
#UMATILLA       N/A         56  44  64  SW10    29.91R
$$

ORZ507-212110-
NORTHERN FOOTHILLS OF THE BLUES

CITY            SKY/WX      TMP DP  RH  WIND    PRES   REMARKS
PENDLETON AIRPT PTCLDY      52  40  63  W25G31  29.92F
#ADAMS 3WNW     N/A         50  42  74  W20G26  29.93F
#ATHENA         N/A         50  43  77  SW9G25  29.96R
#CAYUSE         N/A         52  41  66  SW15    29.92F
#HELIX SCHOOL   N/A         50  43  77  W15G26  29.92F
#HELIX 3N       N/A         48  43  83  SW25    29.89F WCI 40
#HELIX 6SW      N/A         51  43  74  W18G30  29.91F
#HOLDMAN 5SE    N/A         52  44  74  SW21G31 29.93F
#HOLDMAN 6E     N/A         49  42  77  NE18G30 29.72F WCI 43
#M-F GROVE ELEM N/A         53  41  64  SW9     29.91S
#M-FREEWATER 5SEN/A         52  43  71  SW16G25 29.94R
#PENDLETON DNTN N/A         55  36  49  W7      28.73S
#PDT AQUATIC CTRN/A         55  39  55  W15     29.91S
#PENDLETON 5NE  N/A         52  43  71  W1      29.89F
#PDT SUNRIDGE   N/A         54  41  61  W15G25  29.95R
#PENDLETON 7NW  N/A         52  43  71  W16G26  29.32S
#PILOT ROCK     N/A         52  37  56  S5      29.95F
#TUTUILLA       N/A         53  41  64  W14     29.96R
#UMAPINE 2E     N/A         55  45  69  SW12    29.89S
#WESTON SCHOOL  N/A         49  39  68  NW14G24 29.92S WCI 44

$$

ORZ508-212110-
SOUTHERN FOOTHILLS OF THE BLUES

CITY            SKY/WX      TMP DP  RH  WIND    PRES   REMARKS
LEXINGTON       CLOUDY      52  43  71  SW16    30.00F
#AJAX           N/A         47  35  63  S9      29.94S
#CONDON SCHOOL  N/A         45  40  82  CALM    29.96F
#CONDON 5W      N/A         45  39  79  W15     29.97F WCI 38
#FOSSIL SCHOOL  N/A         46  39  76  W8      29.99F
#HEPPNER EOC    N/A         49  40  71  W8      29.94S
#HEPPNER 4NE    N/A         46  40  79  SW9     29.98R
#LEXINGTON 2SE  N/A         53  42  66  W10     29.94S
#MIKKALO        N/A         51  40  66  W16G26  29.98S
#OLEX 4N        N/A         53  44  71  W21     29.97F
#RUGGS 5NE      N/A         46  39  76  W17     30.14S WCI 39
#RUGGS 2SW      N/A         46  38  73  W17G26  30.01F WCI 39

$$

ORZ502-503-212110-
BLUE MOUNTAINS

CITY            SKY/WX      TMP DP  RH  WIND    PRES   REMARKS
MEACHAM         CLOUDY      42  35  76  VRB6    29.92F
#BATTLE MTN DOT N/A         39  36  89  W3      N/A
#HARDMAN 10S    N/A         38  36  92  SW1     30.15S
#HEPPNER 15SE   N/A         40  37  89  S5      29.89R
#LADD CYN SMT   N/A         43  30  60  W8      N/A
#LADD CREEK ODOTN/A         41  40  96  CALM    N/A
#LONG CREEK HS  N/A         41  40  96  CALM    29.93F
#N POWDER DOT   N/A         44  34  68  NW7     N/A
#PIKES PEAK     N/A         41  38  89  SW31G40 27.99S WCI 30
#TOLLGATE       N/A         34  34  100 W8      29.83S
#TROY SCHOOL    N/A         47  44  89  CALM    29.79R
#UKIAH          N/A         43  37  79  E8      30.01F
#WESTON 4E      N/A         43  39  86  SW12G25 29.90R WCI 37
$$

ORZ505-212110-
JOHN DAY BASIN

CITY            SKY/WX      TMP DP  RH  WIND    PRES   REMARKS
JOHN DAY        LGT DRIZZLE 42  40  93  W14     29.99F WCI 35
#JOHN DAY KJDY  N/A         46  46  100 SW1     30.09R
#DAYVILLE SCHOOLN/A         32  29  89  CALM    30.16S
#MONUMENT HS    N/A         47  40  76  SW2     30.03R
#MT. VERNON 5SE N/A         40  38  92  CALM    29.96S
#WINLOCK        N/A         43  40  89  NE2     30.09F
$$

ORZ506-212110-
OCHOCO AND JOHN DAY HIGHLANDS

CITY            SKY/WX      TMP DP  RH  WIND    PRES   REMARKS
#HORSE RIDGE DO N/A         46  40  79  W10     N/A
#KEYES SMT DOT  N/A         38  38  100 W8      N/A
#PINE MTN OBS   N/A         36  36  100 W5      N/A
#PRAIRIE CITY   N/A         39  36  89  W5      30.09R
#SENECA         N/A         38  N/A N/A N2      N/A
#SENECA 9NW     N/A         37  36  96  CALM    30.03S
$$

ORZ049-212110-
GRANDE RONDE VALLEY

CITY            SKY/WX      TMP DP  RH  WIND    PRES   REMARKS
LA GRANDE       CLOUDY      46  32  58  W12     29.92F WCI 40
#COVE           N/A         45  39  79  N5      30.03S
#COVE SCHOOL    N/A         46  38  73  CALM    29.94R
#COVE 6NW       N/A         46  37  71  CALM    30.03R
#ELGIN 3N       N/A         48  33  56  W8      29.66S
#ELGIN 1E       N/A         49  37  63  W9      N/A
#ISLAND CITY 4N N/A         52  51  96  CALM    30.02F
#LADD CYN DOT   N/A         47  34  60  SW6     N/A
#UNION 1S       N/A         45  38  76  CALM    29.91R
$$

ORZ050-212110-
WALLOWA COUNTY

CITY            SKY/WX      TMP DP  RH  WIND    PRES   REMARKS
JOSEPH AIRPORT  LGT RAIN    43  30  60  NW7     29.92R
#ENTERPRISE AP  N/A         44  31  60  W13G24  29.86R WCI 38
#ENTERPRISE HS  N/A         44  34  68  NW9     29.93R
#IMNAHA SCHOOL  N/A         53  37  54  SE2     29.91R
#IMNAHA 10S     N/A         48  35  60  S7      29.91R
#JOSEPH 3N      N/A         42  32  67  NW16G36 29.94R WCI 34
#JOSEPH 3W      N/A         39  29  67  CALM    29.75R
#LOSTINE        N/A         45  34  65  W6      29.75R
#MT HOWARD 8000 N/A         25  24  96  W6      29.86R
#PROMISE 1S     N/A         40  37  89  E7      30.02R
#SHEEP RDG 7000 N/A         28  25  88  CALM    29.91R
#WALLOWA SCHOOL N/A         47  36  65  NW3     30.89R



$$



USA.gov is the U.S. government's official web portal to all federal, state and local government web resources and services.